• en Suisse
  • Liste des pays
  • À 7 jours
  • Température de l'eau
  • Carte satellitaire
  • Carte météo
  • Widgets météo
  • user-avatar
    Se connecter

    Météo par heure à Kryukovo

    Ce jour, 24 Juin, Dimanche

    Heure Température Précipitation Vent Pression Humidité
    00:00 +13°C° 0 mm 1 m/s 752 mmHg 86%
    01:00 +13°C° 0 mm 1 m/s 752 mmHg 85%
    02:00 +12°C° 0 mm 1 m/s 751 mmHg 86%
    03:00 +12°C° 0,4 mm 1 m/s 751 mmHg 89%
    04:00 +12°C° 0,4 mm 2 m/s 751 mmHg 91%
    05:00 +12°C° 0,4 mm 2 m/s 750 mmHg 94%
    06:00 +11°C° 0,2 mm 3 m/s 750 mmHg 94%
    07:00 +11°C° 0,2 mm 3 m/s 750 mmHg 94%
    08:00 +11°C° 0 mm 4 m/s 749 mmHg 94%
    09:00 +12°C° 0,1 mm 4 m/s 749 mmHg 93%
    10:00 +12°C° 0,1 mm 5 m/s 748 mmHg 91%
    11:00 +13°C° 0,1 mm 5 m/s 748 mmHg 90%
    12:00 +13°C° 1,1 mm 5 m/s 748 mmHg 92%
    13:00 +13°C° 1,1 mm 5 m/s 747 mmHg 94%
    14:00 +13°C° 1,1 mm 5 m/s 747 mmHg 95%
    15:00 +13°C° 1,1 mm 4 m/s 747 mmHg 96%
    16:00 +13°C° 1,1 mm 4 m/s 747 mmHg 96%
    17:00 +14°C° 1,1 mm 4 m/s 747 mmHg 96%
    18:00 +13°C° 0,4 mm 4 m/s 747 mmHg 95%
    19:00 +13°C° 0,4 mm 4 m/s 747 mmHg 95%
    20:00 +13°C° 0,4 mm 4 m/s 747 mmHg 94%
    21:00 +12°C° 0 mm 4 m/s 748 mmHg 94%
    22:00 +12°C° 0 mm 4 m/s 748 mmHg 94%
    23:00 +11°C° 0 mm 4 m/s 748 mmHg 94%

    Demain, 25 Juin, Lundi

    Heure Température Précipitation Vent Pression Humidité
    00:00 +10°C° 0 mm 5 m/s 749 mmHg 93%
    01:00 +10°C° 0 mm 5 m/s 749 mmHg 93%
    02:00 +9°C° 0 mm 5 m/s 750 mmHg 92%
    03:00 +9°C° 0 mm 5 m/s 750 mmHg 92%
    04:00 +9°C° 0 mm 5 m/s 750 mmHg 91%
    05:00 +10°C° 0 mm 4 m/s 751 mmHg 91%
    06:00 +10°C° 0 mm 4 m/s 751 mmHg 86%
    07:00 +11°C° 0 mm 4 m/s 752 mmHg 82%
    08:00 +12°C° 0 mm 4 m/s 752 mmHg 78%
    09:00 +14°C° 0 mm 4 m/s 753 mmHg 70%
    10:00 +15°C° 0 mm 4 m/s 753 mmHg 63%
    11:00 +18°C° 0 mm 4 m/s 753 mmHg 55%
    12:00 +19°C° 0 mm 4 m/s 754 mmHg 54%
    13:00 +20°C° 0 mm 3 m/s 754 mmHg 53%
    14:00 +21°C° 0 mm 3 m/s 754 mmHg 52%
    15:00 +20°C° 0,5 mm 3 m/s 754 mmHg 61%
    16:00 +19°C° 0,5 mm 3 m/s 754 mmHg 69%
    17:00 +19°C° 0,5 mm 3 m/s 754 mmHg 77%
    18:00 +18°C° 0,4 mm 2 m/s 755 mmHg 82%
    19:00 +17°C° 0,4 mm 2 m/s 755 mmHg 86%
    20:00 +16°C° 0,4 mm 2 m/s 755 mmHg 91%
    21:00 +15°C° 0,1 mm 2 m/s 756 mmHg 92%
    22:00 +13°C° 0,1 mm 2 m/s 756 mmHg 94%
    23:00 +12°C° 0,1 mm 2 m/s 756 mmHg 96%

    Après-demain, 26 Juin, Mardi

    Heure Température Précipitation Vent Pression Humidité
    00:00 +12°C° 0 mm 2 m/s 757 mmHg 96%
    01:00 +10°C° 0 mm 2 m/s 757 mmHg 97%
    02:00 +10°C° 0 mm 2 m/s 757 mmHg 97%
    03:00 +10°C° 0 mm 2 m/s 758 mmHg 97%
    04:00 +10°C° 0 mm 2 m/s 758 mmHg 97%
    05:00 +10°C° 0 mm 2 m/s 758 mmHg 97%
    06:00 +13°C° 0 mm 2 m/s 758 mmHg 92%
    07:00 +14°C° 0 mm 2 m/s 759 mmHg 87%
    08:00 +16°C° 0 mm 2 m/s 759 mmHg 81%
    09:00 +17°C° 0,1 mm 2 m/s 759 mmHg 75%
    10:00 +18°C° 0,1 mm 2 m/s 760 mmHg 69%
    11:00 +20°C° 0,1 mm 3 m/s 760 mmHg 63%
    12:00 +20°C° 0,2 mm 2 m/s 760 mmHg 60%
    13:00 +21°C° 0,2 mm 2 m/s 760 mmHg 57%
    14:00 +23°C° 0,2 mm 2 m/s 760 mmHg 54%
    15:00 +23°C° 0,1 mm 2 m/s 760 mmHg 55%
    16:00 +23°C° 0,1 mm 2 m/s 760 mmHg 56%
    17:00 +23°C° 0,1 mm 2 m/s 760 mmHg 56%
    18:00 +21°C° 0 mm 1 m/s 760 mmHg 63%
    19:00 +20°C° 0 mm 1 m/s 760 mmHg 70%
    20:00 +17°C° 0 mm 0 m/s 760 mmHg 76%
    21:00 +16°C° 0 mm 0 m/s 761 mmHg 80%
    22:00 +15°C° 0 mm 1 m/s 761 mmHg 84%
    23:00 +14°C° 0 mm 1 m/s 761 mmHg 87%

    27 Juin, Mercredi

    Heure Température Précipitation Vent Pression Humidité
    00:00 +14°C° 0 mm 1 m/s 761 mmHg 88%
    01:00 +13°C° 0 mm 1 m/s 762 mmHg 90%
    02:00 +13°C° 0 mm 1 m/s 762 mmHg 91%
    03:00 +14°C° 0 mm 1 m/s 762 mmHg 89%
    04:00 +14°C° 0 mm 1 m/s 762 mmHg 88%
    05:00 +15°C° 0 mm 1 m/s 763 mmHg 87%
    06:00 +18°C° 0 mm 1 m/s 763 mmHg 79%
    07:00 +20°C° 0 mm 1 m/s 763 mmHg 72%
    08:00 +22°C° 0 mm 1 m/s 763 mmHg 65%
    09:00 +24°C° 0 mm 1 m/s 763 mmHg 59%
    10:00 +25°C° 0 mm 1 m/s 763 mmHg 54%
    11:00 +26°C° 0 mm 1 m/s 763 mmHg 49%
    12:00 +27°C° 0 mm 1 m/s 763 mmHg 48%
    13:00 +27°C° 0 mm 1 m/s 763 mmHg 47%
    14:00 +27°C° 0 mm 1 m/s 763 mmHg 46%
    15:00 +27°C° 0 mm 2 m/s 763 mmHg 48%
    16:00 +27°C° 0 mm 2 m/s 763 mmHg 51%
    17:00 +27°C° 0 mm 2 m/s 763 mmHg 53%
    18:00 +25°C° 0 mm 2 m/s 763 mmHg 60%
    19:00 +24°C° 0 mm 2 m/s 763 mmHg 66%
    20:00 +21°C° 0 mm 2 m/s 763 mmHg 73%
    21:00 +20°C° 0 mm 2 m/s 763 mmHg 75%
    22:00 +18°C° 0 mm 2 m/s 763 mmHg 78%
    23:00 +17°C° 0 mm 2 m/s 764 mmHg 80%

    28 Juin, Jeudi

    Heure Température Précipitation Vent Pression Humidité
    00:00 +17°C° 0 mm 2 m/s 764 mmHg 81%
    01:00 +16°C° 0 mm 2 m/s 764 mmHg 82%
    02:00 +15°C° 0 mm 2 m/s 763 mmHg 83%
    03:00 +16°C° 0 mm 2 m/s 763 mmHg 82%
    04:00 +16°C° 0 mm 2 m/s 763 mmHg 81%
    05:00 +16°C° 0 mm 2 m/s 763 mmHg 80%
    06:00 +18°C° 0 mm 2 m/s 763 mmHg 75%
    07:00 +20°C° 0 mm 2 m/s 763 mmHg 70%
    08:00 +23°C° 0 mm 2 m/s 763 mmHg 65%
    09:00 +25°C° 0 mm 3 m/s 763 mmHg 58%
    10:00 +26°C° 0 mm 3 m/s 762 mmHg 51%
    11:00 +28°C° 0 mm 3 m/s 762 mmHg 45%
    12:00 +29°C° 0 mm 3 m/s 761 mmHg 43%
    13:00 +29°C° 0 mm 3 m/s 761 mmHg 42%
    14:00 +29°C° 0 mm 3 m/s 760 mmHg 41%
    15:00 +29°C° 0 mm 3 m/s 760 mmHg 42%
    16:00 +29°C° 0 mm 3 m/s 759 mmHg 44%
    17:00 +29°C° 0 mm 3 m/s 758 mmHg 46%
    18:00 +27°C° 0 mm 3 m/s 758 mmHg 54%
    19:00 +26°C° 0 mm 3 m/s 758 mmHg 62%
    20:00 +24°C° 0 mm 3 m/s 758 mmHg 70%
    21:00 +22°C° 0 mm 3 m/s 757 mmHg 71%
    22:00 +21°C° 0 mm 3 m/s 757 mmHg 73%
    23:00 +20°C° 0 mm 3 m/s 757 mmHg 75%

    29 Juin, Vendredi

    Heure Température Précipitation Vent Pression Humidité
    00:00 +19°C° 0 mm 3 m/s 756 mmHg 76%
    01:00 +19°C° 0 mm 3 m/s 756 mmHg 78%
    02:00 +18°C° 0 mm 3 m/s 756 mmHg 79%
    03:00 +19°C° 0 mm 3 m/s 755 mmHg 80%
    04:00 +19°C° 0 mm 3 m/s 755 mmHg 80%
    05:00 +19°C° 0 mm 3 m/s 754 mmHg 81%
    06:00 +20°C° 0 mm 3 m/s 754 mmHg 77%
    07:00 +22°C° 0 mm 3 m/s 753 mmHg 74%
    08:00 +23°C° 0 mm 4 m/s 753 mmHg 70%
    09:00 +25°C° 0 mm 4 m/s 753 mmHg 67%
    10:00 +27°C° 0 mm 4 m/s 752 mmHg 63%
    11:00 +28°C° 0 mm 4 m/s 752 mmHg 60%
    12:00 +28°C° 0,4 mm 4 m/s 751 mmHg 66%
    13:00 +27°C° 0,4 mm 4 m/s 751 mmHg 73%
    14:00 +26°C° 0,4 mm 3 m/s 750 mmHg 79%
    15:00 +26°C° 0,4 mm 3 m/s 750 mmHg 81%
    16:00 +26°C° 0,4 mm 4 m/s 749 mmHg 83%
    17:00 +26°C° 0,4 mm 4 m/s 749 mmHg 85%
    18:00 +25°C° 0,4 mm 3 m/s 749 mmHg 87%
    19:00 +24°C° 0,4 mm 3 m/s 748 mmHg 88%
    20:00 +24°C° 0,4 mm 3 m/s 748 mmHg 90%
    21:00 +23°C° 0,4 mm 2 m/s 748 mmHg 92%
    22:00 +21°C° 0,4 mm 2 m/s 748 mmHg 93%
    23:00 +21°C° 0,4 mm 2 m/s 748 mmHg 95%
    Voir plus